Clemson, SC

10:23 AM EDT on April 23, 2017 (GMT -0400)
Oconee County Regional

Weather History for KCEU - January, 2014

Change the Weather History Date:

Tuesday, January 28, 2014

  Actual Average Record
Temperature  
Mean Temperature 34 °F -  
Max Temperature 41 °F 52 °F 79 °F (1944)
Min Temperature 26 °F 29 °F -3 °F (1940)
Degree Days  
Heating Degree Days 32    
Moisture  
Dew Point 15 °F    
Average Humidity 59    
Maximum Humidity 81    
Minimum Humidity 24    
Precipitation  
Precipitation 0.05 in - - ()
Sea Level Pressure  
Sea Level Pressure 30.16 in    
Wind  
Wind Speed 5 mph (ENE)    
Max Wind Speed 12 mph    
Max Gust Speed 16 mph    
Visibility 6 miles    
Events Snow    
Averages and records for this station are not official NWS values.
T = Trace of Precipitation, MM = Missing Value Source: NWS Daily Summary

Daily Weather History Graph

Daily Weather History Graph

Search for Another Location

Airport or City:

Trip Planner

Search our weather history database for the weather conditions in past years. The results will help you decide how hot, cold, wet, or windy it might be!

Date:

Astronomy

Jan. 28, 2014 Rise Set
Actual Time 7:32 AM EST 5:56 PM EST
Civil Twilight 7:05 AM EST 6:23 PM EST
Nautical Twilight 6:35 AM EST 6:53 PM EST
Astronomical Twilight 6:05 AM EST 7:23 PM EST
Moon 5:11 AM EST (1/28) 3:47 PM EST (1/28)
Length of Visible Light 11h 17m
Length of Day
10h 24m
Waning Crescent, 7% of the Moon is Illuminated
Jan 28
Waning Crescent
Jan 30
New
Feb 6
First Quarter
Feb 14
Full
Feb 22
Last Quarter

Hourly Weather History & Observations

Time (EST) Temp. Windchill Dew Point Humidity Pressure Visibility Wind Dir Wind Speed Gust Speed Precip Events Conditions
12:54 AM 41.0 °F - 19.0 °F 41% 30.01 in 10.0 mi Calm Calm - N/A   Clear
1:54 AM 39.9 °F 37.8 °F 21.0 °F 47% 30.04 in 10.0 mi ESE 3.5 mph - N/A   Clear
2:54 AM 37.0 °F 32.4 °F 10.0 °F 33% 30.08 in 10.0 mi East 5.8 mph - N/A   Clear
3:54 AM 36.0 °F 29.6 °F 7.0 °F 30% 30.09 in 10.0 mi East 8.1 mph - N/A   Clear
4:54 AM 35.1 °F 29.3 °F 7.0 °F 31% 30.09 in 10.0 mi ENE 6.9 mph - N/A   Clear
5:54 AM 34.0 °F 29.8 °F 6.1 °F 31% 30.12 in 10.0 mi East 4.6 mph - N/A   Clear
6:54 AM 34.0 °F 27.2 °F 5.0 °F 30% 30.14 in 10.0 mi ENE 8.1 mph - N/A   Overcast
7:54 AM 33.1 °F 26.9 °F 3.0 °F 28% 30.17 in 10.0 mi East 6.9 mph - N/A   Mostly Cloudy
8:54 AM 34.0 °F 25.5 °F 1.9 °F 26% 30.19 in 10.0 mi ENE 11.5 mph 16.1 mph N/A   Overcast
9:54 AM 34.0 °F 27.2 °F 1.9 °F 26% 30.23 in 10.0 mi ENE 8.1 mph - N/A   Overcast
10:54 AM 35.1 °F 29.3 °F 1.0 °F 24% 30.25 in 10.0 mi East 6.9 mph - N/A   Overcast
11:54 AM 35.1 °F 29.3 °F 1.9 °F 25% 30.22 in 10.0 mi ENE 6.9 mph - N/A   Overcast
12:54 PM 34.0 °F 28.0 °F 6.1 °F 31% 30.20 in 10.0 mi East 6.9 mph - N/A   Overcast
1:54 PM 30.9 °F 24.3 °F 12.9 °F 47% 30.19 in 10.0 mi East 6.9 mph - N/A   Overcast
2:11 PM 30.2 °F 26.7 °F 17.6 °F 60% 30.18 in 2.0 mi ENE 3.5 mph - 0.00 in Snow Light Snow
2:18 PM 30.2 °F 24.3 °F 17.6 °F 60% 30.18 in 2.0 mi ENE 5.8 mph - 0.00 in Snow Light Snow
2:43 PM 28.4 °F 22.2 °F 19.4 °F 69% 30.18 in 1.2 mi ENE 5.8 mph - 0.00 in Snow Light Snow
2:54 PM 28.9 °F 22.8 °F 21.0 °F 72% 30.19 in 0.8 mi NE 5.8 mph - 0.00 in Snow Light Snow
3:23 PM 28.4 °F 21.2 °F 21.2 °F 74% 30.16 in 0.8 mi NE 6.9 mph - 0.01 in Snow Light Snow
3:32 PM 28.4 °F - 21.2 °F 74% 30.16 in 0.8 mi Calm Calm - 0.01 in Snow Light Snow
3:54 PM 28.0 °F 20.8 °F 21.9 °F 78% 30.19 in 0.8 mi ENE 6.9 mph - 0.02 in Snow Light Snow
4:51 PM 26.6 °F 21.2 °F 21.2 °F 80% 30.16 in 1.0 mi Variable 4.6 mph - 0.02 in Snow Light Snow
4:54 PM 27.0 °F 21.6 °F 21.9 °F 81% 30.18 in 1.0 mi East 4.6 mph - 0.02 in Snow Light Snow
5:03 PM 26.6 °F 19.1 °F 21.2 °F 80% 30.15 in 0.8 mi East 6.9 mph - 0.00 in Snow Light Snow
5:13 PM 26.6 °F 19.1 °F 21.2 °F 80% 30.16 in 1.0 mi East 6.9 mph - 0.00 in Snow Light Snow
5:24 PM 26.6 °F 21.2 °F 21.2 °F 80% 30.15 in 1.5 mi ENE 4.6 mph - 0.00 in Snow Light Snow
5:54 PM 27.0 °F 21.6 °F 21.9 °F 81% 30.17 in 1.2 mi ENE 4.6 mph - 0.01 in Snow Light Snow
6:05 PM 26.6 °F 18.2 °F 21.2 °F 80% 30.14 in 1.8 mi ENE 8.1 mph - 0.00 in Snow Light Snow
6:11 PM 26.6 °F 20.0 °F 19.4 °F 74% 30.14 in 3.0 mi East 5.8 mph - 0.00 in Snow Light Snow
6:18 PM 26.6 °F 19.1 °F 19.4 °F 74% 30.14 in 4.0 mi East 6.9 mph - 0.00 in Snow Light Snow
6:54 PM 27.0 °F 21.6 °F 19.9 °F 75% 30.18 in 10.0 mi East 4.6 mph - 0.00 in   Overcast
7:25 PM 26.6 °F 20.0 °F 19.4 °F 74% 30.18 in 10.0 mi ENE 5.8 mph - N/A   Overcast
7:43 PM 26.6 °F 20.0 °F 19.4 °F 74% 30.18 in 10.0 mi ENE 5.8 mph - N/A   Overcast
7:54 PM 27.0 °F 23.0 °F 19.0 °F 72% 30.20 in 10.0 mi ENE 3.5 mph - N/A   Overcast
8:29 PM 26.6 °F 21.2 °F 19.4 °F 74% 30.18 in 10.0 mi Variable 4.6 mph - N/A   Overcast
8:54 PM 27.0 °F 23.0 °F 19.0 °F 72% 30.20 in 6.0 mi ESE 3.5 mph - 0.00 in Snow Light Snow
9:54 PM 26.1 °F 20.5 °F 18.0 °F 71% 30.20 in 10.0 mi East 4.6 mph - 0.00 in   Overcast
10:17 PM 26.6 °F 21.2 °F 17.6 °F 69% 30.17 in 10.0 mi East 4.6 mph - N/A   Overcast
10:54 PM 26.1 °F 20.5 °F 16.0 °F 66% 30.20 in 10.0 mi ENE 4.6 mph - N/A   Overcast
11:54 PM 26.1 °F - 17.1 °F 69% 30.20 in 10.0 mi Calm Calm - N/A   Overcast